Regional Weather Roundup
Issued by NWS State College, PA

Home | Current Version | Previous Version | Text Only | Print | Product List | Glossary Off
Versions: 1 2 3 4 5 6 7 8 9 10 11 12 13 14 15 16 17 18 19 20 21 22 23 24 25 26 27 28 29 30 31 32 33 34 35 36 37 38 39 40 41 42 43 44 45 46 47 48 49 50

000
ASUS41 KCTP 280503
RWRCTP

REGIONAL WEATHER ROUNDUP
NATIONAL WEATHER SERVICE STATE COLLEGE PA
1200 AM EST FRI NOV 28 2014

Note: "fair" indicates few or no clouds below 12,000 feet with no
significant weather and/or obstructions to visibility.

* = STATION THAT DOES NOT REPORT PRECIPITATION /E.G. RAIN...SNOW...ETC/
    THUNDER OR FOG.

PAZ002>004-007>009-013>016-020>023-029>032-280600-
WESTERN PENNSYLVANIA

CITY           SKY/WX    TMP DP  RH WIND       PRES   REMARKS
ERIE           CLOUDY    30  20  66 NW15G28   30.21R
MEADVILLE      LGT SNOW  26  22  84 NW10G22   30.16S FOG
FRANKLIN*      MOCLDY    27  19  74 NW12      30.16S
NEW CASTLE     HVY SNOW  27  27 100 CALM      30.21F
BEAVER COUNTY  NOT AVBL
BUTLER*        CLOUDY    28  25  86 W6        30.20R
PITTSBURGH INT FLURRIES  29  24  82 W13       30.20S
PITTSBURGH     CLOUDY    29  21  72 W9G18     30.19S
INDIANA*       CLOUDY    28  25  86 W12       30.19S
LATROBE        FLURRIES  28  25  86 SW12      30.21S
WASHINGTON CO* CLOUDY    28  23  80 W9        30.23S
$$

PAZ004>006-010>012-017>019-024>028-033>037-041-042-045-046-049>053-280600-
CENTRAL PENNSYLVANIA

CITY           SKY/WX    TMP DP  RH WIND       PRES   REMARKS
BRADFORD       LGT SNOW  26  20  77 W18G28    30.03F WCI  13
DUBOIS         CLOUDY    26  24  92 W10       30.09S FOG
CLEARFIELD     CLOUDY    28  23  81 W9        30.11S
JOHNSTOWN      LGT SNOW  24  21  88 W12       30.09S VSB 1   WCI  13
ALTOONA        CLOUDY    29  23  78 NW9       30.13S
STATE COLLEGE  CLOUDY    29  23  76 W13       30.11S
WILLIAMSPORT   MOCLDY    30  26  85 N5        30.09F
SELINSGROVE    CLOUDY    33  24  69 W7        30.12S
FT INDIANTOWN  CLOUDY    34  26  74 W13G22    30.11S
CAPITAL CITY   MOCLDY    34  24  67 W10G21    30.14R
HARRISBURG     MOCLDY    34  25  69 NW16      30.13R
YORK           CLOUDY    35  26  69 W12G21    30.13S
$$

PAZ038>040-043-044-047-048-054-055-060>062-067>071-280600-
EASTERN PENNSYLVANIA

CITY           SKY/WX    TMP DP  RH WIND       PRES   REMARKS
SCRANTON       CLOUDY    24  20  84 S7        30.05F
MOUNT POCONO   MOCLDY    21  17  84 NW7       29.98F WCI  12
ALLENTOWN      CLEAR     27  22  81 W6        30.09F
QUAKERTOWN*    FAIR      23  23 100 CALM      30.10R
READING        MOCLDY    30  26  85 CALM      30.10S
LANCASTER      CLOUDY    31  28  89 W7        30.11S
COATESVILLE    CLOUDY    32  30  93 W6        30.10S
POTTSTOWN      CLEAR     24  22  91 CALM      30.11F
BLUE BELL      CLEAR     30  28  93 CALM      30.10S
DOYLESTOWN     CLEAR     27  24  89 W3        30.09S
WILLOW GROVE   NOT AVBL
NORTH PHILA    CLEAR     31  23  72 W6        30.12F
PHILADELPHIA   PTCLDY    32  25  75 W8        30.13S
$$



USA.gov is the U.S. government's official web portal to all federal, state and local government web resources and services.